Theta_e
330 328 325 324 323 325 328 327 326 326 325 325 326 325 326 326 325 324 325 327 327 326 326 327 327 326 327 329 328 328 329 329 329 329 329 328 327 326 325 324 324 323 323 322 320 319 319 318 317 316 314 312 310 309 308 307 306 306 306 306 306 306 307 307 307 308 308 308 309 308 309 309 309 309 309 309 308 308 307 307 308 308 309 310 310
332 331 329 329 327 328 328 327 326 324 324 325 326 326 325 326 325 324 324 324 324 324 325 327 328 328 329 329 328 328 329 328 329 330 329 328 326 326 325 325 324 324 323 322 321 321 320 318 317 316 314 312 311 309 308 307 307 306 306 306 305 305 306 306 306 307 307 308 308 308 308 308 308 308 308 308 308 308 307 307 307 307 307 307 307
333 332 331 331 331 329 328 327 326 325 323 324 327 327 326 326 324 324 324 323 322 323 324 327 328 329 329 328 328 328 328 327 328 329 329 328 327 326 326 325 324 324 323 322 322 322 320 318 316 315 314 313 311 310 308 308 307 306 306 305 305 305 305 306 306 306 306 307 307 307 308 308 308 308 308 308 308 307 307 307 307 307 306 306 306
333 333 332 332 332 330 328 326 325 326 324 323 327 328 327 327 325 324 325 323 323 323 325 327 329 329 329 328 328 328 328 327 327 329 329 328 327 327 326 325 324 324 324 323 321 319 318 317 315 315 315 313 311 311 309 309 308 307 307 306 305 305 305 305 305 305 305 306 307 307 307 307 307 307 307 307 307 307 307 307 307 307 306 306 306
332 333 333 333 332 330 329 326 323 325 323 322 326 328 327 327 325 325 326 325 325 325 327 329 329 329 329 328 328 328 328 328 328 328 329 328 327 327 326 325 324 324 324 322 319 316 315 315 314 314 313 311 310 310 310 309 308 308 307 307 306 305 305 305 304 304 304 305 306 306 307 307 307 307 307 307 307 307 307 307 307 306 306 306 307
331 333 333 333 333 331 331 328 324 325 323 323 327 328 328 326 325 325 325 325 325 327 329 330 330 330 330 329 329 328 329 328 328 328 328 327 327 327 326 325 325 324 324 321 317 315 315 314 313 312 311 309 308 309 309 309 309 308 308 307 307 306 305 305 305 304 304 305 305 306 306 306 307 307 307 307 307 307 307 306 306 307 308 309 310
331 332 333 333 333 331 331 331 327 326 326 326 328 328 328 326 325 325 324 323 325 327 329 330 330 330 330 330 329 329 329 328 328 328 326 326 327 327 327 326 325 325 323 321 319 318 317 316 315 313 311 310 309 308 307 307 307 308 308 307 307 306 306 305 304 304 304 305 305 306 306 307 307 307 307 307 307 306 306 307 308 310 312 314 316
330 332 333 333 333 331 331 331 329 328 327 327 327 326 326 325 325 326 326 324 326 329 331 331 331 330 330 329 329 329 329 328 328 327 326 326 327 327 327 327 326 324 323 323 322 321 320 319 317 315 314 314 312 311 309 308 307 307 307 306 306 306 305 305 304 304 305 305 306 306 307 307 307 307 307 307 307 308 309 311 313 316 318 319 320
331 333 333 332 332 331 331 332 331 330 329 328 328 326 326 326 326 328 329 327 328 331 332 332 331 330 330 330 329 329 329 328 328 327 326 326 326 326 327 327 327 325 324 324 324 324 323 322 321 319 319 319 319 317 314 311 309 308 307 306 305 304 304 304 304 305 306 306 306 307 307 307 307 307 308 310 312 313 315 317 319 320 321 321 322
332 333 333 332 332 332 332 332 331 331 330 331 330 328 328 328 328 328 328 327 328 331 332 332 331 331 330 330 330 329 329 329 328 327 326 326 326 326 326 327 328 326 325 324 324 325 325 325 325 324 323 323 323 322 320 318 315 310 308 307 305 304 304 304 305 305 306 306 307 307 307 307 308 310 312 315 318 319 320 321 321 322 322 322 322
333 333 333 332 332 332 332 332 331 331 330 332 332 329 328 330 329 328 327 328 330 331 332 331 331 331 331 330 330 329 329 329 328 328 327 327 327 327 327 328 328 327 326 324 323 325 325 326 327 327 326 326 326 325 324 324 322 316 312 310 308 306 305 305 306 306 307 307 307 307 307 308 311 315 318 320 321 321 322 322 322 322 322 322 322
333 333 332 331 332 333 333 332 331 330 329 331 330 328 328 330 330 328 328 329 331 332 332 331 331 331 330 329 329 330 330 329 329 329 329 328 328 327 327 327 328 327 327 326 323 323 324 325 326 326 326 327 327 328 327 327 326 323 317 312 310 309 308 307 307 307 307 307 307 307 310 313 317 320 322 322 322 322 322 322 322 322 322 322 321
334 333 332 331 333 333 333 332 330 329 329 328 327 326 328 330 330 329 330 329 330 331 331 331 331 330 329 329 329 329 330 329 330 329 329 329 328 327 327 327 328 327 327 327 324 323 323 324 324 325 326 327 327 327 327 327 327 326 322 317 312 309 309 308 307 307 307 307 308 311 315 319 322 323 323 323 323 323 322 322 322 322 322 322 321
333 332 332 332 332 333 332 331 328 327 328 328 326 327 329 330 330 329 330 330 330 329 329 330 330 330 329 329 329 329 329 329 330 330 329 329 327 327 328 328 328 327 327 328 326 324 324 325 324 323 325 326 327 326 326 326 327 326 325 322 315 309 309 308 308 308 308 309 312 317 320 322 323 323 323 323 323 322 322 322 321 321 320 320 321
334 332 333 332 331 330 330 329 328 328 328 328 327 328 329 331 331 330 330 329 329 330 329 329 330 330 329 328 329 329 329 329 328 328 328 328 327 328 328 328 328 328 327 327 327 326 326 327 325 323 324 325 325 324 324 326 326 326 326 325 318 310 309 309 308 309 310 315 319 321 323 323 323 323 323 323 322 322 322 322 322 320 318 317 319
334 333 332 331 329 327 328 328 328 328 328 328 327 328 329 330 331 329 329 328 328 329 330 330 330 330 329 328 328 329 329 328 327 327 327 327 327 328 328 328 327 327 328 328 327 326 326 326 326 324 324 324 323 321 323 325 325 324 325 325 321 312 309 310 309 311 315 320 322 323 323 323 323 323 323 322 322 322 322 323 323 320 317 316 315
333 333 332 330 327 327 329 329 327 328 329 329 328 328 328 328 328 328 328 328 328 328 330 331 330 330 329 328 328 327 328 328 327 326 327 327 327 327 327 328 327 327 328 328 326 326 326 326 327 325 325 324 323 322 323 324 325 324 324 325 324 316 311 311 310 313 320 322 323 323 323 323 323 323 322 322 322 323 323 323 321 318 316 315 310
333 333 332 329 328 329 330 328 328 329 330 329 329 328 328 327 327 327 328 328 328 329 329 330 331 330 329 328 328 327 327 327 327 327 327 326 327 327 327 327 328 327 328 327 326 326 326 327 326 326 325 325 325 324 324 324 324 324 324 324 325 321 314 311 312 316 321 323 322 322 323 323 323 322 321 322 323 324 321 317 314 312 311 310 307
332 333 331 329 330 330 329 329 330 331 330 329 327 327 327 327 328 328 328 327 328 328 328 329 330 329 329 329 328 327 327 327 326 327 327 326 326 327 327 327 328 327 327 327 326 326 326 327 326 326 325 325 325 325 325 324 324 324 324 323 324 324 318 313 314 318 322 324 323 323 324 323 322 322 322 323 323 322 314 307 306 307 307 307 308
332 333 331 330 331 330 329 330 331 330 329 328 326 326 327 328 329 329 329 328 328 328 327 328 328 329 329 329 329 328 328 328 327 326 326 326 326 327 327 328 328 327 327 326 326 327 327 327 326 326 325 325 325 325 325 325 324 324 324 323 323 325 322 316 316 319 322 324 324 324 324 323 322 323 323 323 322 316 307 305 307 307 307 308 307
332 333 332 331 331 331 330 330 330 329 328 327 327 328 328 329 329 329 329 329 329 328 328 328 328 328 329 328 329 328 328 329 328 327 326 325 327 326 327 328 327 327 327 326 327 327 327 327 326 325 325 326 325 325 325 325 325 324 324 323 323 324 324 320 317 319 322 323 324 324 324 324 323 323 322 323 319 310 305 307 308 307 307 305 304
332 332 331 330 330 331 331 330 329 328 326 327 329 329 329 329 329 329 329 329 329 329 329 329 328 328 328 328 329 328 328 328 328 327 326 326 326 325 326 327 327 327 326 327 327 327 327 326 326 325 325 326 326 325 325 325 325 325 324 324 323 323 325 323 320 320 321 323 324 324 324 324 324 322 322 320 312 306 307 308 307 306 305 303 302
332 331 330 329 330 330 330 329 328 327 327 329 330 329 328 329 329 329 329 329 329 329 330 329 329 329 328 328 329 328 328 327 327 327 326 326 326 325 326 327 326 326 326 326 327 327 327 326 325 325 325 325 325 325 325 325 325 325 324 324 323 323 323 324 323 322 322 323 324 324 324 325 323 321 319 313 307 307 308 307 306 304 303 302 302
331 330 329 329 329 329 329 328 327 328 329 330 329 329 328 328 329 329 329 329 329 330 330 329 330 329 328 328 328 328 328 327 327 326 326 326 326 325 326 326 325 326 326 326 327 326 326 326 325 325 325 324 325 325 325 325 324 324 325 323 322 322 323 324 324 324 323 323 324 324 324 325 321 315 311 308 307 308 308 306 305 303 302 302 302
330 329 330 329 328 327 328 328 328 330 330 329 328 328 328 328 328 328 329 329 329 329 329 330 330 329 328 327 327 328 328 327 327 327 327 327 326 325 326 326 326 326 326 326 326 325 325 325 325 325 324 324 324 324 324 325 324 324 324 322 321 322 323 323 324 324 324 324 324 323 324 325 318 308 306 307 307 308 306 304 303 302 302 302 302
329 329 329 328 327 328 328 328 329 329 329 328 328 327 327 328 328 328 329 329 328 329 329 330 329 328 328 328 328 328 328 327 327 327 327 327 327 326 326 327 326 325 326 325 325 324 323 324 325 324 324 324 323 323 323 323 323 322 322 321 321 321 322 324 324 324 323 324 323 323 324 321 312 306 307 308 307 306 304 303 303 302 303 302 302
329 328 328 328 328 329 329 329 329 329 328 328 328 327 327 328 328 329 330 330 328 328 329 329 328 328 328 329 329 329 328 327 327 327 327 327 327 327 326 326 326 325 325 325 324 324 323 324 324 324 324 323 322 322 322 322 321 321 321 321 321 321 322 323 324 323 323 322 323 324 322 314 307 306 308 306 305 304 303 303 303 303 303 302 302
327 328 329 330 330 329 329 329 330 329 329 329 328 327 327 328 328 328 328 329 327 327 328 328 327 327 328 328 328 329 328 327 327 326 327 327 328 328 327 326 326 325 324 324 324 324 324 324 324 323 323 322 321 321 322 321 321 321 321 321 321 322 322 322 322 321 321 321 321 320 315 308 306 307 306 305 304 304 304 305 304 303 303 302 302
328 329 329 330 330 329 329 330 330 329 329 329 328 327 327 327 327 326 326 326 325 325 327 326 326 326 327 327 327 328 328 327 327 327 327 327 328 328 327 326 325 324 323 323 323 324 324 324 323 323 322 321 321 321 321 321 321 320 320 320 318 318 318 317 316 315 316 315 314 311 308 306 307 306 305 304 305 305 306 305 304 304 303 302 302
328 329 329 330 330 329 329 329 329 328 328 328 327 326 326 325 323 323 324 324 324 324 325 325 325 325 326 326 326 327 327 327 327 327 327 327 327 327 327 327 326 325 323 323 323 324 324 324 323 322 321 321 321 321 321 320 320 319 319 317 313 311 310 309 308 308 309 309 308 307 307 307 306 305 305 305 306 306 306 306 305 304 303 303 302
329 329 329 329 329 329 329 329 328 327 326 326 326 325 324 322 320 320 321 323 324 323 324 324 324 324 324 324 325 325 326 327 327 327 327 326 327 327 327 327 326 326 324 324 323 323 323 323 322 321 320 320 320 320 320 320 320 319 318 316 312 309 308 307 307 306 307 307 307 307 307 306 305 305 306 307 307 307 307 307 306 305 304 303 302
330 330 329 328 328 328 328 328 327 325 325 325 325 325 324 321 320 319 319 322 324 323 323 323 323 324 324 324 325 325 326 327 327 327 326 326 326 326 327 327 327 326 325 324 323 323 322 322 321 320 319 318 319 319 319 319 319 318 317 315 312 309 308 307 307 307 307 308 307 307 306 305 305 306 307 308 308 309 308 308 307 306 305 304 303
330 329 328 327 326 327 327 327 327 325 325 325 325 325 324 321 320 321 321 322 324 323 323 323 323 323 324 324 325 325 326 326 326 326 326 326 326 327 327 327 326 326 325 324 323 322 321 320 319 319 318 316 316 316 317 318 319 318 317 315 311 309 308 308 308 308 308 307 307 307 306 305 305 307 308 309 309 310 310 309 308 307 306 305 304
326 328 328 327 327 327 327 327 328 327 326 326 325 325 323 320 321 323 323 324 324 323 322 323 324 324 324 325 324 325 326 326 326 326 326 326 326 326 327 326 326 326 325 324 323 322 320 319 318 317 317 316 315 314 315 316 318 317 315 312 309 308 308 307 307 307 307 307 307 306 305 305 306 308 309 310 310 311 310 310 310 309 308 307 306
323 326 328 327 327 327 327 327 327 327 327 326 324 323 321 320 322 323 323 322 321 321 322 323 323 324 325 325 325 325 326 326 327 326 326 326 325 325 326 326 325 324 324 323 323 322 321 320 319 318 317 317 316 315 314 315 316 315 312 309 307 306 306 306 306 306 307 307 306 306 305 306 307 309 309 310 311 311 311 311 311 310 310 309 308
323 326 328 327 327 327 326 326 326 324 324 323 322 322 321 320 321 321 321 320 321 322 322 321 322 323 325 326 326 326 326 326 326 326 325 325 324 325 325 325 323 323 323 323 323 323 322 322 320 319 318 317 317 315 312 311 312 311 308 306 306 305 304 304 304 305 306 306 306 305 305 306 308 309 310 311 311 312 312 311 311 311 311 310 310
325 327 328 327 327 325 322 321 321 320 321 322 322 322 321 320 320 320 320 321 321 322 321 320 320 323 325 326 326 326 326 326 326 325 325 324 323 323 323 323 322 322 322 322 323 323 322 322 321 319 318 317 317 316 312 309 308 308 307 306 305 305 305 304 305 305 306 306 306 306 306 307 308 309 310 311 311 311 311 312 311 311 311 311 311
326 327 327 326 324 320 318 319 320 321 323 323 322 322 321 320 320 320 320 321 321 321 321 321 321 323 326 327 327 327 326 325 324 323 323 322 321 321 321 321 321 321 321 321 322 322 321 321 321 320 318 317 316 316 313 310 308 309 309 308 308 308 308 308 308 308 307 307 307 307 307 307 308 309 310 310 310 311 311 311 312 312 311 311 311
327 327 326 322 319 318 320 322 323 323 324 323 322 322 321 319 319 319 319 320 321 321 321 322 323 324 326 327 326 327 326 324 322 321 321 320 320 320 319 319 319 319 320 321 321 321 320 321 321 319 317 316 316 315 314 312 310 309 310 310 310 311 311 311 311 311 310 309 308 308 307 307 308 309 309 310 310 310 310 311 311 312 311 311 311
327 325 321 315 314 318 323 324 323 323 323 322 322 321 320 319 319 319 319 320 321 321 321 323 325 326 327 327 327 327 325 323 321 320 320 320 320 319 319 318 319 319 319 319 319 319 319 319 320 318 317 316 315 314 313 312 311 311 311 311 312 312 312 312 312 311 311 311 310 309 308 308 308 309 309 309 309 309 309 310 311 311 311 311 311
324 320 317 314 315 319 323 323 323 322 322 321 321 321 320 319 319 320 320 320 321 321 321 323 326 327 327 327 326 325 323 322 321 321 321 320 320 320 319 319 319 319 319 318 318 318 318 318 318 317 317 316 316 314 313 313 313 313 313 312 312 312 312 311 312 312 311 311 311 311 310 309 309 309 309 309 309 309 309 310 310 311 312 311 311
321 318 318 318 318 319 321 322 322 321 321 321 320 320 319 319 319 321 321 320 321 321 321 323 325 326 326 326 324 323 322 322 321 321 321 321 321 320 320 320 319 319 319 319 318 318 318 318 317 317 317 316 315 315 314 313 313 313 312 312 312 312 311 311 311 312 312 312 312 312 312 311 310 309 309 310 310 310 310 311 311 311 311 311 311
321 320 320 320 319 319 320 321 322 321 321 321 319 319 319 319 320 320 321 321 321 321 321 321 323 324 324 324 323 322 322 321 321 321 321 321 321 320 320 320 320 319 319 319 318 318 318 318 318 318 317 316 315 315 314 314 313 312 312 312 312 311 311 310 310 311 311 312 312 312 313 312 311 311 311 311 311 311 311 312 312 311 311 311 311
322 321 320 319 319 320 320 320 320 321 321 319 318 318 319 319 320 320 320 321 321 322 322 322 322 322 322 322 322 321 321 320 320 320 320 320 320 320 320 320 320 319 319 319 318 318 318 318 319 319 318 318 317 317 317 316 315 315 314 314 313 312 312 311 311 311 312 312 313 313 313 313 312 312 312 312 312 312 312 312 312 312 311 311 310
322 321 320 319 318 319 320 320 320 320 319 318 317 319 319 320 320 319 320 320 320 321 322 322 322 321 321 321 321 321 320 320 320 320 320 319 319 318 318 318 318 318 318 318 317 318 318 318 318 318 318 318 318 318 318 317 317 317 316 317 316 315 314 313 313 314 314 315 315 315 315 316 314 313 312 313 312 312 312 312 311 311 310 310 309
322 321 321 319 318 318 319 320 320 319 318 317 318 320 320 320 319 319 321 321 321 321 321 321 321 321 321 321 321 320 319 318 318 319 319 318 317 317 317 317 317 317 317 317 317 317 317 317 317 317 317 318 318 318 318 318 318 318 318 318 318 317 316 316 316 316 316 317 317 317 316 317 316 315 314 314 314 313 313 313 313 313 312 311 310
322 321 321 320 319 318 319 319 319 318 318 318 319 320 320 320 320 319 320 321 322 322 321 320 318 317 317 317 316 315 313 312 313 315 316 315 315 315 316 317 317 317 317 318 318 317 317 317 317 318 318 318 318 318 318 318 318 319 319 318 318 318 318 318 317 317 317 317 317 317 316 316 316 316 315 315 315 314 314 314 314 314 313 312 310
322 321 321 321 319 318 319 319 319 318 319 319 320 320 320 320 320 320 320 321 322 320 317 316 314 313 313 313 313 312 311 310 311 312 312 312 313 314 316 317 318 318 317 318 318 318 318 318 319 319 319 319 318 318 318 318 318 318 318 319 318 318 318 317 317 317 317 316 316 316 315 315 315 314 315 315 315 314 314 314 314 313 313 313 312
322 321 320 319 319 319 319 319 319 319 320 320 320 321 320 320 320 320 320 321 320 318 315 313 312 312 312 313 313 313 313 312 313 312 312 312 313 315 317 317 317 317 317 317 317 318 318 319 319 320 319 319 318 318 318 317 317 317 318 318 318 317 317 317 316 315 315 315 315 315 315 314 314 314 314 314 314 313 313 313 313 312 313 313 313
320 320 319 319 319 319 319 319 319 319 319 319 319 319 319 320 320 320 321 320 318 316 314 313 312 312 312 312 313 313 313 313 313 313 313 312 312 314 316 317 317 318 318 318 318 318 318 318 318 318 318 318 317 317 317 316 316 317 317 317 316 316 315 315 315 314 314 314 314 314 313 313 312 312 312 312 311 310 309 310 310 311 312 312 312
318 318 318 318 318 318 318 317 316 317 316 316 316 317 318 318 319 319 319 318 315 313 312 312 312 312 312 311 311 312 313 313 313 313 313 313 313 314 315 315 316 317 318 318 318 318 318 318 317 317 316 316 316 315 315 316 315 316 316 316 315 315 314 313 313 313 312 312 312 312 311 312 311 311 310 309 309 308 308 307 308 309 311 310 309
Wind_Speed
11 12 13 13 14 16 15 14 15 15 16 18 19 19 20 21 22 21 21 20 18 15 11 9 9 8 5 3 4 6 7 7 6 4 3 3 3 3 3 3 3 3 3 2 2 1 2 1 1 1 1 1 0 1 1 2 2 2 2 2 2 3 4 4 4 4 4 5 4 4 4 4 4 3 3 4 4 5 5 5 6 7 7 8 9
11 11 12 13 14 15 14 14 15 16 17 18 20 19 19 20 20 20 19 18 17 15 12 10 9 7 5 3 4 5 6 6 4 3 2 2 2 2 2 2 2 2 1 2 1 1 1 2 2 1 0 1 1 1 1 1 2 2 2 2 3 3 4 4 4 4 3 3 3 3 3 2 3 3 3 4 4 4 5 4 5 6 6 7 8
11 11 12 13 13 13 13 14 15 16 17 19 20 20 19 19 18 18 17 16 15 14 13 10 8 6 4 3 5 6 6 4 3 1 1 0 1 1 1 1 1 1 1 1 1 1 2 2 1 1 1 1 1 1 1 1 1 2 2 2 1 1 2 2 2 2 1 1 2 2 2 2 3 3 3 3 3 4 4 4 4 6 7 7 8
13 13 14 14 14 13 12 12 13 16 18 19 21 21 20 19 19 18 16 15 14 14 13 10 7 6 4 4 6 6 5 3 2 1 1 1 0 0 0 1 1 2 1 1 1 1 2 2 2 1 1 0 1 1 1 1 1 1 0 1 0 0 0 1 1 0 1 2 3 3 3 3 3 3 3 3 3 3 4 4 5 7 8 8 9
14 14 15 15 15 14 12 11 13 16 18 19 22 23 22 20 19 18 17 16 14 13 12 9 8 7 5 5 5 5 5 4 2 2 2 2 1 1 1 2 2 2 2 2 2 2 3 4 4 3 3 2 1 1 1 0 0 1 1 1 1 1 1 1 1 1 2 2 3 3 3 3 3 3 3 4 4 5 5 6 7 9 10 11 12
16 16 17 17 17 16 13 12 14 17 18 20 22 23 22 21 19 18 16 16 15 13 11 9 9 7 6 7 6 5 6 4 3 3 2 2 2 2 2 2 2 2 2 4 4 4 5 6 6 6 6 5 3 3 2 2 1 1 1 2 2 2 2 2 2 2 3 3 3 4 4 3 4 4 5 5 6 7 7 9 10 12 13 13 14
17 18 19 18 18 17 14 13 15 18 19 20 21 22 21 20 19 18 16 15 14 13 11 10 8 7 7 8 7 6 6 5 4 3 3 3 3 3 3 3 3 3 4 5 5 6 7 7 8 8 9 8 7 7 5 4 4 3 3 2 2 2 2 2 2 3 4 4 4 5 5 5 5 6 6 7 8 10 11 12 13 14 14 14 14
19 20 19 18 18 17 14 15 16 17 19 19 19 19 20 20 19 18 16 14 13 12 11 9 8 8 7 7 7 6 6 5 4 4 4 3 3 3 3 3 3 4 4 5 5 5 6 7 8 9 10 10 11 10 9 8 6 5 5 4 4 4 4 4 3 4 5 5 5 6 6 7 7 8 8 10 11 12 13 14 14 14 14 14 14
20 20 18 18 18 16 15 17 17 15 16 17 16 16 16 17 18 16 14 13 13 12 11 10 9 8 8 8 7 6 6 6 6 5 5 3 3 3 3 3 3 3 4 4 4 4 4 5 6 7 8 9 11 11 11 10 9 7 6 5 5 4 5 5 5 6 6 6 6 7 7 8 9 10 11 12 13 14 14 14 13 13 13 12 12
22 21 19 18 18 17 16 17 16 14 14 14 13 13 13 15 15 14 14 13 14 13 11 11 10 9 9 8 8 7 7 7 7 7 5 4 3 3 4 4 4 3 4 4 4 3 3 3 3 3 4 5 6 8 9 11 10 8 7 6 5 5 5 6 6 6 7 7 7 8 9 10 11 13 13 14 13 13 13 12 12 11 11 11 11
23 21 20 19 18 17 16 16 16 14 13 14 13 13 14 15 15 14 14 14 14 13 12 11 11 10 9 8 8 8 8 8 8 8 7 6 4 3 4 5 5 5 4 3 3 3 3 3 3 3 3 2 2 3 5 7 8 8 8 7 6 5 6 6 6 6 7 7 8 9 10 11 13 13 13 13 13 12 11 11 10 10 10 10 10
25 22 19 19 18 17 16 16 16 14 13 16 16 15 15 16 15 15 14 15 15 13 12 11 10 10 9 9 9 9 8 7 8 8 8 7 5 4 5 5 6 5 4 3 3 4 4 3 3 3 3 2 1 1 1 2 4 5 7 7 6 5 5 6 6 6 7 8 9 10 11 12 12 12 12 12 11 11 10 10 9 9 8 8 9
24 22 19 19 18 17 17 17 16 14 13 15 17 17 16 15 15 15 15 16 15 13 12 11 11 11 10 10 10 9 9 8 8 9 8 7 6 6 5 6 7 5 5 5 3 3 3 2 2 3 3 3 2 2 1 0 1 2 4 6 6 5 5 5 5 7 8 9 10 11 12 12 11 11 11 11 10 10 9 8 8 7 7 7 9
23 21 20 19 19 18 18 18 16 15 14 14 16 17 16 16 16 15 15 14 13 12 12 12 12 13 12 11 9 9 9 8 9 9 9 7 6 6 5 6 8 6 5 6 5 4 3 3 2 3 3 3 3 3 2 2 1 0 2 4 4 4 4 5 6 7 9 11 12 12 12 11 10 10 9 9 9 8 8 7 6 6 5 7 8
22 20 20 20 19 18 18 17 16 15 15 15 16 17 16 16 15 14 13 13 12 11 12 12 13 13 12 11 9 9 9 9 10 9 8 7 6 7 6 6 7 6 6 7 6 5 4 4 3 3 4 4 4 4 4 3 2 1 2 1 2 3 4 5 6 8 10 11 12 11 10 9 9 8 8 7 7 7 6 5 5 5 6 7 6
20 19 21 21 18 16 16 16 16 15 15 16 16 16 15 14 14 13 13 13 13 13 14 13 13 11 10 10 11 11 9 8 11 10 9 8 8 7 6 6 6 6 7 8 8 7 5 5 4 4 5 4 4 4 5 4 2 1 2 2 2 3 4 5 7 9 10 11 11 10 9 9 8 7 6 5 4 4 4 3 3 3 5 6 4
19 19 21 20 16 16 17 17 16 15 15 15 15 14 14 14 13 13 13 13 13 14 15 15 13 11 9 8 9 9 10 11 11 10 9 8 8 7 7 7 6 6 7 8 9 7 6 5 5 5 5 5 5 5 5 4 3 2 2 3 3 4 4 5 8 9 10 10 9 8 7 7 6 5 4 2 2 3 3 3 3 3 4 5 4
17 19 20 19 17 19 19 17 16 15 15 15 14 14 14 14 14 13 12 12 12 14 16 16 15 12 10 9 6 5 7 12 13 10 9 9 8 7 7 7 7 7 7 8 8 7 6 6 6 5 5 5 5 5 5 5 4 3 3 4 4 5 6 7 8 10 9 8 7 6 4 5 5 3 2 3 4 4 4 3 3 3 4 5 5
16 18 19 18 18 18 18 17 16 15 15 15 14 14 14 14 13 13 13 12 12 13 14 16 16 14 13 12 10 7 5 7 11 10 10 11 9 7 7 8 8 8 8 8 8 8 7 6 6 5 5 6 5 4 5 5 5 5 5 5 5 6 7 7 9 10 9 7 6 5 4 5 4 3 3 4 5 4 3 3 4 4 4 5 5
17 18 18 18 18 17 17 16 16 15 15 15 14 15 15 14 14 14 14 14 13 12 12 14 15 14 14 14 12 11 8 6 8 9 9 11 12 10 9 9 9 9 9 8 8 8 7 6 6 6 6 6 6 5 6 6 6 6 6 6 6 7 7 8 9 10 10 9 7 6 6 5 4 4 4 4 4 3 3 4 5 4 4 3 4
17 19 18 17 17 17 17 16 16 15 15 14 15 15 15 14 14 15 14 14 13 12 11 12 13 13 14 14 13 13 11 8 8 11 10 10 13 13 12 11 11 11 10 9 9 8 8 7 6 6 6 7 6 7 7 7 7 7 7 7 7 7 9 10 10 10 11 11 8 7 6 5 5 4 4 4 4 4 4 4 4 3 3 3 3
16 16 16 16 17 17 17 16 16 15 15 15 16 16 15 15 14 14 14 13 13 13 11 10 11 12 13 14 14 14 12 10 10 13 12 11 12 14 15 14 13 13 11 10 9 8 8 7 7 7 6 6 6 7 8 8 8 8 8 8 8 9 10 11 11 11 11 10 9 8 5 5 5 4 4 5 5 5 4 3 3 2 2 2 2
15 16 16 17 17 17 17 16 15 15 15 15 15 16 15 15 15 14 14 14 13 11 11 10 9 11 13 14 14 13 12 11 11 12 13 12 11 13 16 16 14 13 11 10 9 8 8 8 7 6 6 6 7 8 9 9 9 9 9 9 10 10 11 12 12 11 10 10 9 7 7 7 6 4 5 6 5 5 4 3 2 1 1 1 1
16 18 19 18 17 17 18 17 15 15 15 15 15 15 14 14 15 14 14 14 12 11 12 11 10 11 13 14 13 12 11 10 11 11 11 11 9 11 15 17 14 12 11 11 10 9 8 7 6 6 6 7 7 8 9 9 9 9 10 10 10 11 11 13 12 11 10 10 8 7 10 9 5 4 6 7 5 5 3 2 2 2 1 1 0
18 19 19 19 18 18 17 17 16 15 15 14 14 14 15 15 14 13 13 13 13 12 12 11 11 10 11 12 13 12 11 10 10 11 10 10 10 10 14 16 13 13 12 11 10 9 9 9 7 7 7 7 7 8 8 9 8 9 10 10 10 10 11 12 13 12 11 10 8 7 10 8 5 5 7 6 5 4 3 3 3 2 2 2 2
18 18 18 18 18 17 16 15 15 15 15 14 14 14 14 14 13 13 13 14 13 13 13 12 12 10 10 11 12 12 11 10 10 10 11 11 10 10 13 15 13 13 12 10 10 10 10 10 9 8 7 7 7 7 8 8 8 9 10 10 10 10 9 11 13 12 11 11 10 9 10 8 6 6 6 6 5 4 4 4 4 3 3 3 3
16 16 16 17 17 16 16 16 16 16 16 15 15 14 14 13 13 13 14 14 14 14 14 14 13 12 11 11 11 12 12 11 11 11 11 11 10 10 13 15 14 12 11 10 10 10 9 8 9 9 8 8 7 7 8 8 8 8 9 10 10 10 9 10 12 11 10 11 10 10 9 7 7 7 6 6 5 5 5 4 4 4 4 3 3
15 15 16 16 16 16 17 17 17 16 16 16 14 14 14 14 14 14 14 14 15 15 15 14 14 13 12 12 12 12 12 12 11 11 11 11 10 10 12 15 13 11 10 11 12 12 9 8 8 8 8 8 7 7 7 7 7 7 8 8 8 8 8 9 9 9 8 8 8 9 8 8 8 7 7 7 6 6 5 4 4 4 4 5 5
16 16 16 15 16 17 17 17 17 17 16 16 15 15 14 14 13 12 13 13 13 14 14 14 13 13 13 12 12 12 12 11 11 11 11 11 11 10 11 14 14 10 7 9 12 12 10 8 8 7 7 8 7 7 6 6 6 6 6 7 7 7 8 8 7 7 8 8 9 9 9 9 9 8 8 7 6 6 5 5 5 5 5 6 6
17 17 17 16 17 18 17 17 17 17 17 17 16 15 14 13 12 12 12 12 12 13 12 12 12 12 12 12 12 12 11 11 11 11 11 11 11 10 10 12 14 11 6 6 8 10 10 9 7 6 6 7 7 6 6 5 5 5 6 6 6 6 7 7 7 7 8 9 9 9 9 9 9 9 8 8 7 6 5 5 5 5 6 6 7
17 18 18 18 18 18 18 18 18 17 18 18 16 15 13 12 11 12 13 13 12 12 12 11 11 11 11 11 12 12 12 12 12 12 11 10 10 10 9 11 12 11 9 8 8 7 8 7 6 5 4 5 6 6 6 5 6 6 6 6 6 6 6 6 7 8 8 9 9 9 10 10 10 9 9 7 7 6 5 6 6 7 7 7 8
19 19 19 19 18 18 19 19 18 17 17 17 16 15 13 11 10 11 13 13 13 12 12 11 11 11 11 11 11 12 12 12 12 12 10 9 9 9 8 10 11 10 9 8 7 4 5 6 6 5 4 4 5 6 5 6 7 7 6 6 6 6 6 6 7 8 9 9 9 10 10 10 10 10 9 8 7 6 6 7 8 8 8 8 9
20 20 19 18 18 18 18 17 16 16 15 15 14 14 12 11 10 12 13 13 13 12 12 11 11 11 11 10 10 10 11 11 11 11 10 9 9 8 8 10 10 9 8 7 6 4 4 6 7 5 5 5 5 6 6 6 7 7 7 7 7 7 7 7 8 9 10 10 10 11 11 11 11 11 10 9 8 8 8 9 9 9 9 10 10
18 18 18 18 18 18 17 16 16 16 16 15 14 14 13 11 11 12 13 13 12 11 11 10 10 10 10 10 9 9 10 10 11 10 10 9 9 10 9 9 9 9 8 7 7 6 5 5 6 4 4 5 6 6 6 7 7 7 7 7 7 8 8 9 10 10 11 11 12 12 12 13 13 12 11 10 10 10 10 10 10 10 10 11 11
17 17 17 17 17 17 17 18 18 17 17 16 15 14 13 12 12 13 13 13 12 11 9 9 8 9 10 9 9 9 9 10 11 10 10 9 9 9 8 9 9 9 8 8 9 9 9 7 6 5 5 5 6 6 6 7 8 9 8 8 8 9 9 10 11 11 12 13 13 13 14 14 14 14 13 12 12 12 12 12 11 11 11 12 12
17 17 17 17 17 17 18 18 19 19 18 16 14 13 13 14 14 14 14 13 12 10 8 7 7 7 8 8 9 9 10 11 11 10 10 9 7 7 7 8 9 8 8 9 10 12 13 12 10 8 7 7 7 7 7 7 8 9 9 9 9 9 9 10 11 12 12 13 14 15 16 16 16 16 15 15 14 14 14 14 14 13 13 13 12
17 17 18 19 17 17 17 18 19 18 17 16 14 14 14 15 15 14 13 12 11 10 7 5 5 7 8 8 9 10 11 11 10 9 9 8 5 6 8 9 9 9 10 11 13 14 14 15 14 11 9 9 9 8 8 7 8 8 8 8 9 9 9 10 11 12 13 14 15 17 18 18 19 19 18 18 17 17 17 17 16 16 15 15 14
16 17 19 19 17 16 18 19 18 18 18 16 14 13 14 15 14 13 12 11 10 9 7 5 6 8 9 9 10 11 10 9 8 7 8 7 7 8 9 10 10 11 12 13 14 14 14 16 16 13 10 9 9 9 9 8 9 10 9 8 8 9 9 10 10 12 14 16 17 18 20 21 21 21 20 20 20 20 20 20 20 19 19 18 18
16 18 19 18 17 18 21 21 19 18 18 16 15 14 14 13 13 12 12 12 11 9 7 7 8 9 9 10 11 11 9 8 8 8 7 7 8 8 8 8 9 10 11 12 13 14 14 16 16 14 11 10 10 10 10 9 10 12 11 11 11 10 11 12 12 13 14 17 18 20 22 23 23 23 23 23 23 24 24 23 23 22 22 22 22
17 18 18 17 20 23 25 23 21 19 18 18 17 16 14 13 12 13 13 12 12 10 9 9 9 9 10 11 11 11 9 8 8 7 7 6 6 6 6 7 6 6 7 8 10 13 14 15 15 13 12 11 11 12 12 13 13 13 12 13 13 13 14 15 15 16 17 18 19 21 23 25 26 26 26 27 27 27 26 26 26 26 26 26 26
17 17 17 18 22 25 25 24 22 21 19 19 19 17 16 15 13 12 13 14 13 11 10 10 10 9 10 10 10 10 8 7 6 6 6 5 5 5 5 6 6 6 5 6 7 9 10 12 13 14 14 13 13 14 15 15 15 14 14 16 16 16 17 19 19 19 20 21 21 23 25 26 27 28 29 30 29 29 29 29 29 29 29 29 29
18 20 19 18 20 21 24 25 23 21 20 19 18 18 17 17 14 12 13 15 14 11 10 11 11 10 10 10 10 8 6 5 4 4 4 4 4 4 4 5 6 7 7 7 7 8 9 11 13 16 17 16 16 17 18 17 18 18 19 20 21 20 21 23 23 22 22 23 25 26 26 27 29 30 31 31 30 30 32 32 32 32 33 33 33
21 21 19 18 19 18 21 23 22 21 20 16 16 19 19 17 14 12 14 16 15 12 11 11 11 10 10 10 9 7 5 4 3 3 3 4 5 6 6 6 7 7 8 9 10 11 12 13 15 16 16 16 17 18 19 19 21 22 23 24 25 25 26 27 28 27 25 25 26 28 28 28 30 31 32 31 31 32 33 32 33 35 36 36 37
21 22 20 19 19 18 19 20 20 20 18 15 17 20 19 16 14 13 14 15 14 13 13 12 11 11 10 9 8 6 5 4 4 4 4 4 6 7 7 7 8 8 8 9 11 12 13 14 15 15 15 15 15 16 17 18 20 22 23 25 26 27 27 28 29 29 28 26 27 30 31 30 31 34 34 32 32 33 34 34 35 37 39 40 41
22 22 21 19 19 19 19 18 18 19 17 16 17 18 17 15 14 14 15 15 15 15 15 14 13 13 11 9 7 6 5 5 6 7 7 7 7 8 9 9 10 11 11 11 12 12 13 13 14 15 15 15 16 16 17 16 16 17 20 22 24 26 26 27 28 29 28 27 28 31 32 30 31 35 36 34 34 36 36 37 38 40 42 44 44
24 22 21 20 20 20 20 19 18 18 17 16 16 16 16 16 15 15 16 16 16 17 16 16 14 12 11 9 6 5 4 5 5 6 7 7 8 9 10 11 11 12 12 13 13 14 13 14 13 13 13 13 13 14 14 14 13 14 17 20 22 24 25 26 27 28 28 29 29 31 33 32 31 34 36 34 34 35 36 37 38 40 42 43 43
25 23 20 19 19 20 21 20 19 18 18 17 16 16 16 16 16 16 16 15 16 16 15 12 9 7 7 5 2 2 3 3 4 5 6 7 9 10 10 11 11 12 12 13 14 14 14 13 12 11 11 11 11 12 13 13 13 14 17 19 21 23 23 24 26 27 27 28 28 30 33 32 30 33 35 34 34 34 34 34 33 33 35 36 36
25 23 20 19 20 21 22 21 20 19 19 19 19 18 18 17 16 16 17 17 16 13 10 8 6 5 4 3 1 4 5 5 6 7 9 10 11 11 11 11 11 12 12 13 13 13 12 12 12 11 11 12 13 14 15 15 14 15 17 19 20 21 20 21 23 23 22 23 23 23 25 25 24 26 29 29 28 28 28 28 28 26 26 26 25
26 24 22 20 22 22 22 22 21 21 21 21 21 20 19 18 18 17 18 18 15 10 7 6 4 3 3 3 4 6 9 10 11 12 12 13 13 13 12 12 12 13 13 14 14 15 14 14 13 13 13 14 15 15 16 16 15 15 16 17 18 18 17 19 20 19 17 18 18 18 19 18 17 17 19 20 19 19 20 22 23 24 23 23 22
27 26 25 25 24 23 22 21 20 21 22 21 21 21 19 19 19 19 19 17 13 10 8 6 6 7 7 8 10 13 16 16 15 15 15 14 15 15 14 13 13 14 14 15 15 16 16 16 16 16 16 16 15 14 14 14 14 14 14 14 15 15 15 15 16 16 14 13 14 14 14 14 13 13 14 16 16 17 19 19 21 22 22 23 23
27 27 26 25 24 23 20 17 15 16 15 13 15 17 17 17 17 17 17 15 12 10 9 8 9 9 9 13 16 18 18 17 16 16 16 16 16 16 16 15 15 15 14 14 14 15 15 16 16 15 15 15 13 12 12 13 13 13 13 13 12 13 13 13 13 14 13 12 12 13 14 14 13 12 13 14 16 18 19 19 19 20 19 19 19
Wind_Direction
191 194 202 193 178 178 184 187 186 184 184 183 179 177 175 172 172 178 184 186 191 197 198 199 202 205 209 246 299 313 326 331 334 338 349 14 26 23 32 36 38 33 15 24 49 50 44 39 30 28 33 48 121 135 128 136 135 148 160 165 164 161 167 177 179 188 188 182 182 179 173 160 141 125 110 95 83 77 75 70 69 74 79 83 83
190 192 192 186 181 179 183 188 188 186 184 183 182 180 177 175 176 183 188 192 197 201 205 208 205 207 212 248 287 300 319 327 327 334 357 27 46 41 43 43 49 51 15 11 25 47 50 27 7 357 295 247 233 200 170 162 152 162 175 184 188 184 184 190 194 202 206 194 186 186 180 152 133 125 111 97 89 86 86 82 76 80 88 90 89
196 199 195 188 184 179 182 188 189 187 184 183 182 181 178 177 181 187 191 195 201 206 211 212 209 212 219 257 277 286 302 311 312 320 0 61 78 49 43 67 86 90 60 19 27 51 48 36 14 343 306 271 263 250 232 199 187 185 191 210 210 199 195 200 211 220 211 169 165 171 163 138 130 124 110 100 95 90 88 89 85 86 93 97 97
201 203 201 195 188 182 181 183 187 186 183 181 181 181 180 181 186 191 194 199 205 208 211 212 212 215 220 258 273 279 278 264 262 251 204 221 126 96 118 100 96 100 101 74 57 50 43 56 66 35 19 8 305 277 261 222 250 254 248 285 329 24 213 197 217 262 94 121 138 141 136 130 126 115 106 98 91 87 84 82 80 84 89 92 92
203 205 205 201 193 186 180 175 178 181 180 179 179 180 182 185 190 194 197 202 206 205 208 212 215 217 220 249 266 259 250 242 235 210 212 225 170 148 131 108 101 106 107 97 92 86 75 71 70 66 74 74 38 331 338 11 308 329 13 19 28 42 48 54 59 71 96 114 127 129 127 126 118 105 98 90 84 84 84 82 83 86 88 89 88
209 209 208 204 196 190 181 172 171 172 174 175 177 180 183 188 192 194 199 202 203 202 206 213 216 220 227 242 252 241 235 236 220 197 204 198 160 147 131 116 115 112 105 105 109 107 95 83 76 75 77 75 75 71 51 44 53 44 46 52 53 54 63 70 83 88 97 107 114 117 114 110 103 99 96 90 87 86 87 88 91 93 92 92 91
215 214 208 205 198 192 186 179 174 172 173 174 175 179 184 189 193 195 199 198 198 202 206 212 217 222 229 236 240 234 227 225 214 195 193 185 155 144 134 129 131 122 117 118 118 111 101 91 85 82 80 78 79 77 73 70 72 76 75 71 70 68 71 78 89 93 101 107 108 108 104 99 98 99 97 93 93 93 95 96 96 96 95 94 93
218 216 207 202 197 193 191 184 178 176 178 179 179 183 186 190 193 197 200 196 194 201 207 211 217 218 217 223 223 220 215 210 211 205 198 187 161 155 148 145 141 132 132 132 128 118 110 104 97 91 87 83 80 74 71 71 71 75 77 75 74 72 78 87 95 100 107 109 107 107 105 105 105 104 102 100 101 101 101 101 99 97 96 94 93
218 214 204 199 197 194 190 182 180 183 181 181 181 182 185 186 189 197 202 200 198 204 211 211 211 210 205 206 203 201 205 208 210 209 204 194 176 173 173 166 151 149 154 155 151 137 126 118 107 98 92 85 80 75 71 66 61 63 68 72 76 78 86 95 103 105 107 109 108 109 111 113 112 109 108 107 107 106 104 103 101 99 97 94 92
218 211 203 200 197 193 189 184 186 191 188 183 179 179 186 189 192 198 200 201 206 211 213 205 199 201 201 195 192 193 198 203 210 210 204 198 198 189 186 183 172 170 173 180 186 170 158 148 132 126 115 95 84 79 74 67 59 58 64 67 71 80 90 96 102 105 107 110 112 114 117 118 117 115 114 112 110 108 106 104 102 99 96 93 91
217 207 203 201 197 192 190 190 188 190 194 192 189 189 194 197 200 204 200 199 210 215 210 200 194 198 198 186 181 188 193 201 213 214 207 202 209 205 198 197 188 181 183 193 200 196 191 177 164 166 161 148 115 83 73 68 61 59 63 65 67 76 89 97 103 108 110 115 119 121 122 121 120 119 116 114 112 109 107 104 100 97 94 90 89
215 204 203 202 198 193 191 192 188 188 196 197 196 197 198 198 200 204 205 202 203 205 204 204 200 194 189 178 174 182 192 202 213 217 215 210 208 208 209 208 197 187 193 202 201 205 208 191 180 185 176 173 185 167 83 66 56 55 62 66 68 72 86 100 109 115 119 121 123 124 124 123 120 118 115 111 108 105 103 100 98 93 88 87 89
216 206 205 203 198 194 192 193 190 190 198 198 195 195 197 201 202 202 207 209 204 200 202 205 201 189 177 171 174 187 196 202 214 224 225 218 209 210 220 219 206 196 202 208 200 198 208 199 193 215 206 181 184 199 198 227 348 41 66 68 68 69 87 106 117 122 124 125 126 127 127 123 120 116 111 106 101 97 94 92 89 86 86 85 84
217 209 205 202 196 193 192 194 195 194 198 198 193 194 199 204 207 205 204 211 213 210 206 201 199 195 185 176 174 191 202 207 216 221 220 216 210 213 228 228 215 211 212 209 205 194 195 205 203 221 220 205 202 206 197 216 268 314 82 69 66 74 100 116 123 127 130 131 131 131 129 125 120 115 109 104 96 87 81 79 77 78 78 78 82
217 210 204 198 193 192 194 197 200 200 201 201 197 197 201 204 209 212 210 209 212 219 216 205 201 198 192 180 174 188 201 213 219 213 211 215 215 219 228 229 222 224 220 211 209 204 200 208 208 206 215 220 221 214 203 208 227 175 150 119 78 90 116 123 128 135 138 138 137 135 132 127 119 112 107 100 91 80 72 64 63 67 71 77 89
219 210 205 199 194 197 198 200 201 203 207 205 201 200 203 206 210 217 223 219 216 220 215 205 204 201 193 182 181 191 195 210 221 211 206 213 217 223 223 219 222 226 225 216 209 206 202 205 208 206 212 219 219 214 206 206 211 180 178 188 132 112 127 136 141 147 148 145 141 139 134 127 120 115 109 98 87 84 84 80 78 90 94 92 92
219 211 206 199 200 203 201 202 203 204 205 203 204 208 208 214 220 224 228 226 224 223 209 198 203 205 204 194 188 199 200 205 218 215 213 220 220 221 217 212 216 221 223 213 203 200 197 204 215 217 219 221 218 214 207 203 202 193 199 205 179 149 147 156 159 156 153 149 142 140 138 134 133 130 126 121 111 114 123 124 124 130 118 102 85
221 212 205 200 206 207 200 202 205 204 205 202 205 214 218 221 225 227 228 224 222 222 208 196 198 200 205 213 216 230 219 212 216 206 205 220 217 212 216 210 205 207 206 201 201 202 198 204 215 217 222 221 218 221 215 208 206 202 207 214 204 181 170 173 173 162 161 161 148 148 162 156 151 146 146 149 138 135 133 120 121 126 108 97 91
222 212 206 204 210 206 196 199 204 205 207 206 206 214 220 223 224 225 226 223 217 218 211 200 201 201 203 214 228 246 251 232 222 203 198 210 209 211 212 201 196 200 200 201 203 203 201 205 211 215 221 219 223 232 225 220 218 214 211 213 213 200 187 186 181 168 171 180 168 167 182 174 172 173 161 153 147 145 138 116 118 118 103 95 89
218 211 209 207 208 202 194 197 201 203 207 208 211 215 217 218 219 220 222 222 217 215 215 211 210 209 206 212 223 233 249 265 240 224 219 205 198 208 206 193 197 200 197 199 199 200 203 207 210 217 224 227 238 242 233 229 228 224 217 214 215 209 200 196 190 181 181 189 192 191 192 186 187 184 169 162 158 151 140 126 119 110 96 87 80
212 208 208 206 204 199 196 198 199 202 207 209 212 213 213 214 213 215 216 216 213 210 216 222 221 216 212 214 219 226 243 258 231 226 235 210 199 208 200 189 198 201 197 195 195 200 203 205 212 219 228 236 242 238 233 234 234 231 222 218 221 215 210 207 199 195 195 201 204 198 197 194 190 193 189 183 170 152 140 129 117 104 97 90 83
206 201 202 201 200 198 197 198 200 202 205 206 208 206 207 210 211 210 210 209 206 204 209 217 222 224 223 220 220 225 236 241 221 217 225 220 215 215 201 194 199 199 199 194 193 201 201 206 217 216 227 239 240 233 232 236 237 234 224 223 229 223 219 217 209 207 211 217 216 199 193 202 199 208 199 179 166 150 139 128 116 108 105 94 86
200 193 196 198 197 198 197 198 201 202 201 203 204 204 206 210 209 203 204 208 206 204 208 207 214 227 229 225 226 232 241 248 243 231 223 219 225 220 203 198 201 198 199 195 192 200 199 207 218 213 222 236 236 231 233 237 237 234 229 227 232 230 226 222 215 215 219 228 230 200 182 201 210 199 177 167 159 149 143 137 137 147 137 115 96
196 191 195 197 196 198 199 199 200 199 199 202 205 207 207 208 206 203 205 210 209 211 215 211 212 222 227 227 228 235 245 257 261 253 238 227 235 229 203 196 198 195 200 201 193 194 198 203 210 211 220 230 234 234 233 238 238 236 235 234 235 235 232 227 218 217 220 227 233 194 176 198 213 177 164 165 160 157 162 172 184 202 189 188 242
193 194 196 197 198 200 201 200 199 196 197 201 204 204 203 201 202 206 212 214 214 218 221 219 220 224 227 229 231 235 241 248 254 252 245 231 234 234 205 194 194 192 198 205 197 198 201 197 198 205 216 225 235 239 236 239 242 239 238 238 237 236 236 228 217 219 223 222 225 201 185 199 207 178 171 171 169 173 186 196 198 206 206 225 254
193 196 197 199 202 202 201 200 196 194 195 197 200 200 199 199 201 206 212 215 217 221 221 221 223 224 224 230 235 238 237 239 240 239 240 233 232 234 207 189 188 196 203 204 204 212 209 198 198 199 207 221 229 237 238 239 242 238 236 237 236 236 234 219 212 221 226 218 216 205 195 201 204 186 179 179 184 192 198 201 204 213 226 243 258
192 195 199 202 203 200 196 193 190 191 193 194 197 199 197 198 202 206 210 214 217 219 219 219 220 219 218 224 231 233 236 239 235 230 235 238 240 240 219 195 186 198 213 211 210 219 215 205 208 206 207 216 219 225 230 232 234 232 233 236 232 229 224 210 210 220 220 212 208 200 197 204 203 191 189 193 195 198 201 207 221 233 247 261 271
193 197 200 199 198 194 189 187 188 190 193 194 195 196 195 196 200 205 209 214 219 220 219 218 218 218 218 222 225 226 233 238 234 230 234 239 240 242 235 221 207 204 214 216 214 216 213 210 214 216 215 210 203 208 215 216 220 225 227 226 220 214 208 201 204 208 201 196 195 197 202 207 203 197 199 200 198 202 212 225 240 252 262 269 274
196 198 198 193 190 190 187 185 187 189 192 194 192 191 193 196 201 205 207 212 216 215 215 217 218 217 219 223 222 222 228 230 229 231 234 236 235 237 241 238 233 230 226 229 227 218 211 210 210 216 219 208 195 193 197 196 201 211 213 210 205 202 197 191 187 187 187 190 196 203 208 208 205 205 205 204 205 214 226 238 248 260 267 271 273
197 195 193 190 187 188 187 185 186 187 189 189 188 189 192 196 202 205 207 208 208 207 208 213 213 212 215 216 217 219 222 221 223 229 233 233 231 231 237 236 238 246 265 285 266 231 213 209 207 210 216 218 207 188 182 188 194 206 212 208 206 205 200 192 183 183 190 199 205 209 210 209 209 211 210 212 218 228 240 253 267 275 279 281 281
194 192 191 190 189 189 188 188 190 189 190 190 192 193 192 197 204 205 204 204 206 207 208 210 209 208 211 211 213 217 213 211 218 225 228 228 224 223 228 231 236 244 260 295 296 250 214 202 204 218 223 227 223 198 183 192 202 210 217 219 220 218 215 207 198 198 202 208 211 210 211 214 215 217 219 224 234 245 260 273 281 284 287 290 291
190 190 191 192 191 191 191 193 195 193 192 193 196 196 194 200 206 203 201 202 205 209 210 212 208 206 208 207 208 210 205 206 215 221 222 220 219 217 218 226 235 239 248 277 295 264 208 188 193 225 235 223 218 209 203 208 213 217 220 226 231 232 232 231 224 221 218 218 218 216 219 221 221 224 229 238 248 259 271 277 281 284 287 289 289
191 190 191 192 192 193 194 196 198 197 197 198 198 200 202 208 207 200 199 201 203 205 207 209 206 202 202 201 200 199 199 202 209 216 218 214 214 216 216 222 232 238 241 256 270 254 206 190 188 204 220 215 216 223 229 228 224 227 230 232 237 240 243 246 245 242 234 227 224 224 227 227 227 231 237 244 253 262 270 274 278 282 282 282 282
195 195 192 193 193 193 197 201 203 203 205 207 207 208 210 210 203 195 195 195 195 197 200 202 199 195 194 195 194 191 194 201 204 213 223 220 212 213 219 225 231 237 236 241 249 247 237 218 205 213 233 230 231 242 252 247 237 236 241 246 249 251 253 254 254 252 244 235 231 230 231 230 232 238 243 247 255 262 266 270 274 277 278 279 279
197 198 197 199 198 199 204 208 210 212 213 214 212 208 204 202 196 190 187 186 186 186 188 190 190 188 187 187 188 188 194 202 206 214 223 220 206 199 211 226 230 234 235 241 250 254 260 260 251 261 276 266 251 253 261 255 242 239 243 252 259 261 263 261 255 250 246 242 238 236 234 234 238 243 246 250 255 260 263 267 271 274 278 281 284
194 192 198 206 206 210 215 215 215 215 212 208 202 195 192 192 188 183 179 177 178 176 173 179 187 185 181 180 182 187 197 206 212 217 213 203 192 192 208 222 227 234 242 250 258 262 266 270 266 269 280 278 259 250 254 249 239 237 239 245 253 258 261 262 255 249 246 245 245 243 240 241 244 247 248 250 254 258 262 265 267 270 276 282 287
187 187 199 211 214 217 215 210 206 200 193 190 185 183 185 184 180 176 174 172 173 170 167 175 184 183 181 181 185 193 201 206 208 205 197 189 193 219 230 231 234 243 251 255 261 263 264 266 268 269 272 268 256 246 247 243 231 231 235 239 245 250 253 256 255 251 248 247 248 247 246 246 249 252 252 253 255 257 260 262 263 266 270 273 278
184 192 205 212 214 209 198 190 186 182 179 179 179 181 183 182 179 178 176 175 173 169 168 174 177 179 182 183 188 194 194 187 178 173 180 193 210 225 235 240 244 251 255 255 256 259 261 263 265 268 272 271 263 251 248 244 235 236 244 248 250 253 256 259 260 257 253 252 252 251 251 252 254 256 257 258 258 259 260 261 261 262 263 266 270
189 200 209 213 205 192 183 179 179 178 178 180 182 183 183 182 185 185 182 179 176 172 175 178 177 177 181 183 185 186 177 162 160 164 172 188 202 214 225 233 239 247 251 252 251 253 258 260 260 260 266 272 269 259 253 249 246 246 249 253 256 258 262 268 272 269 264 261 258 256 255 255 255 256 257 258 258 258 259 260 260 260 262 264 266
200 207 208 202 191 183 180 179 180 181 182 182 183 183 183 185 188 186 184 183 180 178 179 177 174 173 177 180 180 177 171 164 167 169 168 175 189 203 214 218 222 229 239 248 253 256 259 259 253 249 255 262 264 261 255 248 249 252 254 258 263 266 267 270 273 273 270 269 267 263 259 256 256 257 257 258 258 258 258 258 259 260 261 263 265
203 198 188 180 179 182 183 182 183 185 185 184 185 184 184 186 187 185 188 189 185 181 177 171 169 170 172 174 173 171 169 168 173 180 182 185 193 203 213 217 219 221 228 242 253 255 256 255 249 247 253 257 257 260 260 258 261 267 266 265 270 274 273 273 273 272 270 271 270 267 264 260 259 259 260 261 262 262 261 260 260 260 262 264 265
193 185 175 169 173 181 184 184 186 187 184 186 188 187 185 185 183 180 182 184 182 177 169 162 160 163 165 167 167 164 163 166 179 200 211 217 221 226 231 230 231 237 241 241 243 246 249 251 252 253 255 256 256 259 263 267 271 273 273 273 276 279 278 276 276 274 272 272 272 270 269 266 263 262 261 263 265 264 263 263 262 262 263 264 266
188 185 180 177 175 177 182 186 188 186 185 188 187 184 184 184 180 174 171 173 173 171 166 158 155 161 167 170 173 175 181 192 203 217 232 244 248 253 260 257 252 252 253 250 249 252 252 252 254 256 256 257 258 260 264 269 271 272 273 275 277 277 276 275 276 275 273 273 273 274 274 272 268 266 265 266 268 267 266 266 266 265 265 266 267
189 190 187 185 180 175 177 181 182 183 185 188 183 180 182 181 178 176 174 172 172 172 172 167 162 164 168 173 182 190 205 225 235 239 252 265 265 264 268 269 266 263 259 256 255 256 256 255 255 257 261 265 267 269 273 277 276 273 272 272 272 273 273 273 274 276 277 277 277 277 276 276 275 273 271 271 272 272 271 272 270 269 269 269 269
191 194 189 187 183 179 178 177 178 182 184 182 181 180 180 180 180 181 176 172 171 171 174 176 174 173 171 170 181 200 224 245 252 257 268 280 281 277 274 273 271 268 265 263 261 259 258 258 257 258 261 265 268 271 277 282 280 274 271 271 271 272 272 271 273 278 282 282 281 281 280 279 279 278 277 276 276 276 275 274 273 272 271 269 269
193 197 193 190 187 186 185 182 180 182 182 179 179 179 180 181 184 183 176 171 172 172 175 177 175 176 176 173 178 200 232 252 254 256 263 271 277 279 277 275 273 271 268 265 262 259 256 255 256 257 260 264 267 272 278 284 285 280 275 273 274 274 275 276 277 278 279 278 278 280 279 277 276 277 277 277 276 275 274 274 273 273 273 273 272
197 197 195 193 190 190 189 186 183 183 181 179 176 178 184 187 189 189 186 182 182 182 182 178 166 159 166 167 175 253 273 275 270 267 267 271 276 275 272 270 269 268 267 266 264 260 255 254 252 253 258 265 270 276 281 285 284 279 274 270 269 271 275 279 281 280 279 279 278 277 278 279 279 279 279 279 280 280 281 281 281 282 283 283 280
195 195 193 191 188 189 189 186 186 185 181 178 175 176 186 194 197 198 195 192 190 184 173 161 143 134 147 164 246 278 281 282 286 287 282 281 283 277 267 263 263 262 261 262 262 259 258 259 259 261 267 272 276 279 281 282 279 273 271 270 271 274 279 285 288 289 290 292 291 288 289 292 293 288 286 287 289 288 289 290 292 294 295 293 288
187 184 183 181 177 179 180 180 183 183 179 177 176 177 182 190 197 202 200 198 198 191 171 163 176 203 241 263 270 285 295 294 292 294 289 284 285 281 270 263 262 261 257 255 257 259 263 268 270 272 278 281 282 282 281 279 277 274 274 278 283 288 294 297 297 298 300 302 304 304 304 306 308 305 302 303 302 301 301 301 301 300 298 295 290
176 172 171 171 169 169 168 168 171 174 174 173 174 176 181 186 194 202 204 207 212 210 204 217 234 241 258 278 287 294 296 289 282 282 279 275 277 277 273 270 268 265 260 255 256 258 262 267 271 277 283 285 285 286 284 281 280 281 283 288 295 299 303 304 303 302 306 310 313 315 315 315 318 319 315 313 312 312 313 313 311 308 302 299 295
161 160 158 159 160 159 160 161 162 167 173 175 177 181 187 194 203 207 207 213 222 221 222 235 242 246 264 280 282 281 280 278 273 270 266 261 261 264 267 270 272 269 267 266 265 265 266 270 274 279 283 284 286 287 286 284 285 287 290 295 300 303 306 310 310 310 312 314 314 315 314 312 312 311 309 309 309 309 309 310 311 309 305 304 304